When you browse on this site, cookies collect data to enhance your experience and personalize the content and advertising you see.
Visit our Privacy Policy to learn more. By continuing to use the site, you agree to this use of cookies and data.
  • en France
  • Liste des pays
  • À 7 jours
  • Température de l'eau
  • Carte satellitaire
  • Carte météo
  • Widgets météo
  • user-avatar
    Se connecter

    Météo par heure à Abzac

    Ce jour, 25 Mai, Samedi

    Heure Température Précipitation Vent Pression Humidité
    00:00 +14°C° 0 mm 2 m/s 762 mmHg 96%
    01:00 +13°C° 0 mm 2 m/s 762 mmHg 96%
    02:00 +13°C° 0 mm 2 m/s 762 mmHg 96%
    03:00 +13°C° 0 mm 2 m/s 762 mmHg 97%
    04:00 +13°C° 0 mm 2 m/s 762 mmHg 96%
    05:00 +13°C° 0 mm 2 m/s 762 mmHg 95%
    06:00 +14°C° 0 mm 2 m/s 763 mmHg 94%
    07:00 +14°C° 0 mm 3 m/s 763 mmHg 87%
    08:00 +17°C° 0 mm 3 m/s 763 mmHg 81%
    09:00 +18°C° 0 mm 3 m/s 763 mmHg 75%
    10:00 +19°C° 0 mm 3 m/s 763 mmHg 69%
    11:00 +20°C° 0 mm 4 m/s 763 mmHg 63%
    12:00 +21°C° 0 mm 4 m/s 763 mmHg 57%
    13:00 +21°C° 0 mm 4 m/s 763 mmHg 58%
    14:00 +21°C° 0 mm 5 m/s 763 mmHg 59%
    15:00 +21°C° 0 mm 5 m/s 763 mmHg 60%
    16:00 +20°C° 0 mm 5 m/s 763 mmHg 64%
    17:00 +19°C° 0 mm 5 m/s 763 mmHg 69%
    18:00 +18°C° 0 mm 4 m/s 763 mmHg 73%
    19:00 +17°C° 0 mm 4 m/s 763 mmHg 78%
    20:00 +14°C° 0 mm 3 m/s 764 mmHg 84%
    21:00 +12°C° 0 mm 3 m/s 764 mmHg 90%
    22:00 +12°C° 0 mm 3 m/s 764 mmHg 92%
    23:00 +13°C° 0 mm 2 m/s 764 mmHg 94%

    Demain, 26 Mai, Dimanche

    Heure Température Précipitation Vent Pression Humidité
    00:00 +12°C° 0 mm 2 m/s 764 mmHg 97%
    01:00 +12°C° 0 mm 2 m/s 764 mmHg 97%
    02:00 +12°C° 0 mm 2 m/s 764 mmHg 98%
    03:00 +12°C° 0 mm 2 m/s 763 mmHg 98%
    04:00 +13°C° 0 mm 2 m/s 763 mmHg 96%
    05:00 +13°C° 0 mm 2 m/s 763 mmHg 95%
    06:00 +14°C° 0 mm 2 m/s 763 mmHg 93%
    07:00 +15°C° 0 mm 2 m/s 763 mmHg 88%
    08:00 +17°C° 0 mm 2 m/s 763 mmHg 84%
    09:00 +18°C° 0 mm 2 m/s 764 mmHg 79%
    10:00 +19°C° 0.1 mm 2 m/s 763 mmHg 74%
    11:00 +20°C° 0.1 mm 2 m/s 763 mmHg 70%
    12:00 +22°C° 0.1 mm 3 m/s 763 mmHg 65%
    13:00 +21°C° 0.2 mm 3 m/s 763 mmHg 68%
    14:00 +21°C° 0.2 mm 3 m/s 763 mmHg 70%
    15:00 +21°C° 0.2 mm 4 m/s 762 mmHg 73%
    16:00 +21°C° 0.1 mm 4 m/s 762 mmHg 74%
    17:00 +20°C° 0.1 mm 4 m/s 762 mmHg 75%
    18:00 +20°C° 0.1 mm 4 m/s 761 mmHg 76%
    19:00 +18°C° 0 mm 3 m/s 762 mmHg 82%
    20:00 +16°C° 0 mm 3 m/s 762 mmHg 88%
    21:00 +14°C° 0 mm 2 m/s 762 mmHg 93%
    22:00 +14°C° 0 mm 2 m/s 762 mmHg 93%
    23:00 +14°C° 0 mm 2 m/s 762 mmHg 93%

    Après-demain, 27 Mai, Lundi

    Heure Température Précipitation Vent Pression Humidité
    00:00 +14°C° 0 mm 2 m/s 762 mmHg 92%
    01:00 +14°C° 0 mm 2 m/s 762 mmHg 93%
    02:00 +14°C° 0 mm 2 m/s 761 mmHg 94%
    03:00 +14°C° 0 mm 2 m/s 761 mmHg 95%
    04:00 +15°C° 0 mm 1 m/s 761 mmHg 94%
    05:00 +15°C° 0 mm 1 m/s 761 mmHg 92%
    06:00 +15°C° 0 mm 1 m/s 760 mmHg 91%
    07:00 +16°C° 0 mm 2 m/s 760 mmHg 89%
    08:00 +17°C° 0 mm 2 m/s 761 mmHg 86%
    09:00 +17°C° 0 mm 3 m/s 761 mmHg 84%
    10:00 +18°C° 0.2 mm 2 m/s 761 mmHg 82%
    11:00 +19°C° 0.2 mm 2 m/s 760 mmHg 80%
    12:00 +20°C° 0.2 mm 2 m/s 760 mmHg 78%
    13:00 +20°C° 0.4 mm 3 m/s 760 mmHg 79%
    14:00 +20°C° 0.4 mm 3 m/s 760 mmHg 79%
    15:00 +20°C° 0.4 mm 4 m/s 759 mmHg 79%
    16:00 +20°C° 0 mm 3 m/s 759 mmHg 77%
    17:00 +20°C° 0 mm 3 m/s 759 mmHg 76%
    18:00 +20°C° 0 mm 3 m/s 759 mmHg 74%
    19:00 +18°C° 0 mm 3 m/s 760 mmHg 78%
    20:00 +16°C° 0 mm 3 m/s 760 mmHg 82%
    21:00 +13°C° 0 mm 3 m/s 760 mmHg 86%
    22:00 +13°C° 0 mm 3 m/s 760 mmHg 89%
    23:00 +12°C° 0 mm 3 m/s 760 mmHg 92%

    28 Mai, Mardi

    Heure Température Précipitation Vent Pression Humidité
    00:00 +11°C° 0 mm 3 m/s 761 mmHg 95%
    01:00 +12°C° 0 mm 2 m/s 761 mmHg 94%
    02:00 +12°C° 0 mm 2 m/s 761 mmHg 94%
    03:00 +12°C° 0 mm 2 m/s 761 mmHg 94%
    04:00 +13°C° 0 mm 2 m/s 761 mmHg 92%
    05:00 +13°C° 0 mm 2 m/s 761 mmHg 89%
    06:00 +13°C° 0 mm 2 m/s 761 mmHg 87%
    07:00 +14°C° 0 mm 2 m/s 762 mmHg 80%
    08:00 +16°C° 0 mm 3 m/s 762 mmHg 72%
    09:00 +17°C° 0 mm 3 m/s 762 mmHg 65%
    10:00 +18°C° 0.2 mm 4 m/s 762 mmHg 63%
    11:00 +18°C° 0.2 mm 4 m/s 762 mmHg 61%
    12:00 +19°C° 0.2 mm 5 m/s 762 mmHg 58%
    13:00 +19°C° 0 mm 5 m/s 762 mmHg 57%
    14:00 +19°C° 0 mm 6 m/s 762 mmHg 56%
    15:00 +19°C° 0 mm 6 m/s 762 mmHg 55%
    16:00 +19°C° 0 mm 6 m/s 762 mmHg 60%
    17:00 +17°C° 0 mm 5 m/s 762 mmHg 65%
    18:00 +16°C° 0 mm 5 m/s 762 mmHg 70%
    19:00 +15°C° 0 mm 4 m/s 762 mmHg 75%
    20:00 +14°C° 0 mm 4 m/s 763 mmHg 80%
    21:00 +13°C° 0 mm 3 m/s 763 mmHg 85%
    22:00 +12°C° 0.1 mm 3 m/s 763 mmHg 89%
    23:00 +12°C° 0.1 mm 3 m/s 763 mmHg 93%

    29 Mai, Mercredi

    Heure Température Précipitation Vent Pression Humidité
    00:00 +12°C° 0.1 mm 2 m/s 763 mmHg 96%
    01:00 +10°C° 0 mm 2 m/s 763 mmHg 96%
    02:00 +10°C° 0 mm 2 m/s 763 mmHg 96%
    03:00 +9°C° 0 mm 2 m/s 763 mmHg 97%
    04:00 +10°C° 0 mm 2 m/s 764 mmHg 94%
    05:00 +10°C° 0 mm 2 m/s 764 mmHg 91%
    06:00 +10°C° 0 mm 2 m/s 765 mmHg 88%
    07:00 +12°C° 0 mm 3 m/s 765 mmHg 79%
    08:00 +14°C° 0 mm 3 m/s 765 mmHg 71%
    09:00 +16°C° 0 mm 3 m/s 766 mmHg 62%
    10:00 +17°C° 0 mm 3 m/s 766 mmHg 58%
    11:00 +19°C° 0 mm 3 m/s 766 mmHg 54%
    12:00 +20°C° 0 mm 3 m/s 766 mmHg 51%
    13:00 +20°C° 0 mm 3 m/s 766 mmHg 51%
    14:00 +20°C° 0 mm 4 m/s 766 mmHg 51%
    15:00 +20°C° 0 mm 4 m/s 766 mmHg 52%
    16:00 +20°C° 0 mm 4 m/s 766 mmHg 57%
    17:00 +19°C° 0 mm 4 m/s 766 mmHg 62%
    18:00 +18°C° 0 mm 3 m/s 767 mmHg 67%
    19:00 +16°C° 0 mm 3 m/s 767 mmHg 73%
    20:00 +14°C° 0 mm 2 m/s 768 mmHg 80%
    21:00 +12°C° 0 mm 2 m/s 768 mmHg 86%
    22:00 +10°C° 0 mm 2 m/s 768 mmHg 88%
    23:00 +11°C° 0 mm 1 m/s 769 mmHg 89%

    30 Mai, Jeudi

    Heure Température Précipitation Vent Pression Humidité
    00:00 +10°C° 0 mm 1 m/s 769 mmHg 91%
    01:00 +10°C° 0 mm 1 m/s 769 mmHg 91%
    02:00 +10°C° 0 mm 1 m/s 768 mmHg 92%
    03:00 +8°C° 0 mm 0 m/s 768 mmHg 93%
    04:00 +9°C° 0 mm 0 m/s 768 mmHg 90%
    05:00 +10°C° 0 mm 0 m/s 769 mmHg 87%
    06:00 +11°C° 0 mm 0 m/s 769 mmHg 84%
    07:00 +13°C° 0 mm 0 m/s 769 mmHg 76%
    08:00 +16°C° 0 mm 0 m/s 769 mmHg 68%
    09:00 +20°C° 0 mm 1 m/s 769 mmHg 60%
    10:00 +21°C° 0 mm 1 m/s 769 mmHg 56%
    11:00 +23°C° 0 mm 1 m/s 769 mmHg 53%
    12:00 +24°C° 0 mm 1 m/s 768 mmHg 49%
    13:00 +24°C° 0 mm 2 m/s 768 mmHg 51%
    14:00 +24°C° 0 mm 2 m/s 768 mmHg 54%
    15:00 +24°C° 0 mm 2 m/s 768 mmHg 56%
    16:00 +24°C° 0 mm 3 m/s 768 mmHg 62%
    17:00 +22°C° 0 mm 3 m/s 768 mmHg 67%
    18:00 +21°C° 0 mm 3 m/s 767 mmHg 73%
    19:00 +19°C° 0 mm 2 m/s 768 mmHg 80%
    20:00 +17°C° 0 mm 2 m/s 768 mmHg 87%
    21:00 +15°C° 0 mm 2 m/s 768 mmHg 94%
    22:00 +14°C° 0 mm 2 m/s 768 mmHg 94%
    23:00 +14°C° 0 mm 1 m/s 768 mmHg 94%
    Voir plus